�N����,����,�~����,�C��,���x,�C��,����,���ϕ���,�ő�u�ԕ���,�ő厞����,���˗�,�I�_���x,�n�����x
"18/07/01","01:00",0.0,24.4,90.5,1011.2,299.1,0.7,1.6,344.9,0.00,22.8,24.6
"18/07/01","02:00",0.0,23.6,91.4,1010.9,296.9,1.0,1.6,316.6,0.00,22.2,24.3
"18/07/01","03:00",0.0,23.1,93.1,1011.2,283.2,1.0,1.7,318.2,0.00,22.0,24.2
"18/07/01","04:00",0.0,22.9,94.0,1011.6,297.2,1.0,2.4,313.4,0.00,21.9,23.8
"18/07/01","05:00",0.0,22.6,94.5,1011.6,304.9,1.1,2.0,328.2,0.00,21.7,23.9
"18/07/01","06:00",0.0,23.3,94.9,1011.6,319.4,1.1,1.9,324.5,0.03,22.5,23.6
"18/07/01","07:00",0.0,26.8,89.9,1012.1,57.6,0.1,1.7,325.4,0.34,25.0,23.7
"18/07/01","08:00",0.0,28.5,77.4,1012.6,47.6,0.5,1.4,344.1,0.96,24.2,24.2
"18/07/01","09:00",0.0,29.6,75.1,1012.1,114.5,1.2,3.4,132.9,1.33,24.8,24.7
"18/07/01","10:00",0.0,30.1,69.1,1011.4,115.9,0.7,3.7,192.9,1.26,23.8,25.4
"18/07/01","11:00",0.0,31.5,62.3,1011.9,150.2,2.0,5.8,187.0,2.02,23.5,26.0
"18/07/01","12:00",0.0,30.6,62.6,1011.2,106.6,1.6,3.9,131.5,1.12,22.7,26.3
"18/07/01","13:00",0.0,32.0,59.5,1010.0,142.4,2.0,5.2,117.6,1.10,23.2,26.5
"18/07/01","14:00",0.0,32.6,56.0,1010.0,154.4,2.1,5.0,157.3,1.35,22.7,26.6
"18/07/01","15:00",0.0,32.6,57.6,1009.3,147.8,1.8,5.6,169.6,0.85,23.2,26.9
"18/07/01","16:00",0.0,32.2,56.6,1009.5,144.2,2.0,4.8,148.2,1.07,22.5,26.7
"18/07/01","17:00",0.0,31.2,55.7,1009.0,133.6,1.8,5.0,173.1,0.65,21.3,26.8
"18/07/01","18:00",0.0,30.7,56.2,1009.3,128.3,1.8,5.2,123.1,0.34,21.0,26.6
"18/07/01","19:00",0.0,29.3,59.0,1008.6,132.2,1.2,6.0,143.5,0.05,20.5,26.3
"18/07/01","20:00",0.0,28.2,61.3,1009.5,151.8,1.6,4.2,153.8,0.00,20.1,25.8
"18/07/01","21:00",0.0,27.2,65.3,1010.4,141.5,1.1,4.0,155.4,0.00,20.2,25.5
"18/07/01","22:00",0.0,24.9,76.0,1010.4,243.3,0.5,2.1,136.5,0.00,20.4,25.3
"18/07/01","23:00",0.0,23.7,83.4,1010.9,296.6,0.6,1.6,327.5,0.00,20.8,24.9
"18/07/01","24:00",0.0,24.6,80.8,1010.7,319.7,0.7,1.3,323.7,0.00,21.1,24.3
"18/07/02","01:00",0.0,23.7,86.0,1010.2,301.8,1.1,2.1,302.3,0.00,21.3,24.3
"18/07/02","02:00",0.0,23.4,87.8,1010.2,314.0,1.0,2.0,333.0,0.00,21.3,24.4
"18/07/02","03:00",0.0,23.0,90.4,1010.0,311.5,1.1,1.8,328.9,0.00,21.4,24.0
"18/07/02","04:00",0.0,22.9,91.2,1009.7,311.0,1.0,2.0,332.8,0.00,21.4,24.0
"18/07/02","05:00",0.0,22.6,92.3,1009.7,305.6,0.7,2.2,301.9,0.00,21.3,23.9
"18/07/02","06:00",0.0,23.4,93.1,1010.0,326.7,1.2,2.1,314.5,0.00,22.3,23.6
"18/07/02","07:00",0.0,25.6,90.2,1010.0,312.0,0.7,2.0,347.4,0.19,23.9,23.7
"18/07/02","08:00",0.0,28.4,77.0,1009.0,140.2,1.5,3.4,148.1,0.85,24.0,24.1
"18/07/02","09:00",0.0,30.2,70.6,1009.0,138.5,1.6,3.4,135.4,1.61,24.3,24.6
"18/07/02","10:00",0.0,29.3,72.8,1008.6,154.4,1.3,3.6,155.5,1.20,24.0,25.2
"18/07/02","11:00",0.0,30.5,68.6,1008.8,139.6,1.5,3.4,186.7,1.15,24.1,25.7
"18/07/02","12:00",0.0,32.5,63.5,1009.0,154.8,1.1,3.7,136.2,1.78,24.7,26.1
"18/07/02","13:00",0.0,32.6,62.0,1008.6,172.7,2.1,4.4,137.8,1.59,24.4,26.7
"18/07/02","14:00",0.0,32.1,62.6,1008.3,157.2,1.0,5.4,204.4,1.62,24.1,27.1
"18/07/02","15:00",0.2,29.8,78.5,1006.2,10.6,1.3,3.1,131.5,1.40,25.7,27.0
"18/07/02","16:00",4.6,26.3,88.8,1006.2,340.5,1.2,3.7,185.6,0.13,24.3,27.0
"18/07/02","17:00",0.0,26.0,88.2,1006.7,176.4,0.3,2.8,125.5,0.18,23.9,26.3
"18/07/02","18:00",0.4,27.4,85.1,1005.5,277.7,0.3,1.9,343.8,0.46,24.7,26.3
"18/07/02","19:00",0.0,26.5,88.7,1006.0,353.0,1.0,2.1,356.1,0.16,24.5,26.1
"18/07/02","20:00",0.0,25.4,92.0,1006.2,306.3,0.6,2.1,341.4,0.00,24.0,25.8
"18/07/02","21:00",0.0,24.9,93.0,1006.4,299.4,0.6,1.7,335.2,0.00,23.7,25.4
"18/07/02","22:00",0.0,24.3,94.2,1006.4,306.3,0.7,1.2,336.9,0.00,23.3,25.2
"18/07/02","23:00",0.0,23.8,94.7,1006.2,318.1,1.1,1.6,325.5,0.00,22.9,24.9
"18/07/02","24:00",0.0,23.4,95.4,1006.2,302.9,1.0,1.8,325.7,0.00,22.7,24.6
"18/07/03","01:00",0.0,23.2,95.6,1005.7,302.7,1.0,1.8,331.8,0.00,22.5,24.3
"18/07/03","02:00",0.0,23.0,95.8,1005.5,308.7,1.1,1.8,319.7,0.00,22.3,24.3
"18/07/03","03:00",0.0,22.9,96.1,1005.2,308.6,1.0,1.6,343.3,0.00,22.3,24.2
"18/07/03","04:00",0.0,22.5,96.5,1005.2,300.2,0.8,1.4,337.2,0.00,22.0,23.9
"18/07/03","05:00",0.0,22.4,96.8,1005.2,310.4,0.8,1.3,325.7,0.00,21.9,23.8
"18/07/03","06:00",0.0,22.8,96.7,1004.8,325.5,1.0,1.6,328.0,0.01,22.3,23.8
"18/07/03","07:00",0.0,23.8,96.5,1004.8,302.4,0.7,1.7,332.6,0.18,23.2,23.9
"18/07/03","08:00",0.0,26.8,82.2,1004.3,101.7,0.7,1.9,122.7,0.92,23.5,23.8
"18/07/03","09:00",0.0,27.4,78.7,1003.8,140.6,1.0,3.3,207.2,1.09,23.4,24.4
"18/07/03","10:00",0.0,28.5,75.2,1002.9,109.8,1.0,2.6,148.1,1.16,23.7,24.7
"18/07/03","11:00",0.0,29.9,66.4,1002.9,123.5,1.1,3.6,156.7,1.73,23.0,25.6
"18/07/03","12:00",0.2,30.3,62.1,1002.6,120.8,1.7,4.4,146.0,2.45,22.3,26.0
"18/07/03","13:00",0.0,30.7,63.1,1001.0,108.5,1.5,5.1,185.3,1.79,22.9,26.6
"18/07/03","14:00",0.0,30.7,60.0,1000.3,116.2,1.7,4.8,124.5,1.46,22.1,26.8
"18/07/03","15:00",0.0,32.1,56.4,1000.0,115.0,1.5,6.7,120.4,1.84,22.4,26.9
"18/07/03","16:00",0.0,30.1,58.9,998.6,140.9,2.1,5.9,122.5,0.66,21.2,26.9
"18/07/03","17:00",0.0,29.8,60.0,997.9,141.5,2.6,5.7,120.6,0.70,21.2,26.6
"18/07/03","18:00",0.0,28.6,65.4,997.9,157.0,1.7,6.6,161.7,0.27,21.5,26.2
"18/07/03","19:00",0.0,28.0,66.8,997.9,157.5,1.3,5.1,128.9,0.12,21.3,26.0
"18/07/03","20:00",0.0,27.2,70.2,998.6,105.9,0.6,5.6,164.6,0.00,21.3,25.6
"18/07/03","21:00",0.0,26.8,72.5,999.1,115.5,0.7,3.4,142.8,0.00,21.5,25.5
"18/07/03","22:00",0.8,24.9,84.1,998.9,40.6,0.5,3.2,134.1,0.00,22.1,25.2
"18/07/03","23:00",0.0,24.3,88.9,998.6,324.9,0.5,1.6,354.5,0.00,22.4,24.9
"18/07/03","24:00",0.0,24.0,91.0,998.2,275.4,0.5,1.7,332.1,0.00,22.5,25.0
"18/07/04","01:00",0.0,23.8,92.5,997.2,313.1,1.0,1.9,317.5,0.00,22.6,24.7
"18/07/04","02:00",0.0,23.7,92.9,996.5,300.9,1.1,2.1,314.5,0.00,22.5,24.5
"18/07/04","03:00",0.0,24.0,92.9,996.5,277.7,0.8,1.8,312.1,0.00,22.8,24.5
"18/07/04","04:00",0.0,24.2,92.7,996.3,302.1,0.7,1.9,254.6,0.00,23.0,24.3
"18/07/04","05:00",0.0,24.3,92.8,996.0,324.7,0.8,1.7,300.5,0.00,23.1,24.5
"18/07/04","06:00",0.0,24.2,93.2,996.0,295.9,1.2,2.2,335.5,0.00,23.1,24.4
"18/07/04","07:00",0.0,24.7,93.4,996.0,306.2,0.8,1.9,335.8,0.00,23.6,24.2
"18/07/04","08:00",0.0,25.6,91.8,996.3,308.4,0.8,1.7,334.9,0.17,24.2,24.3
"18/07/04","09:00",0.0,25.7,91.1,995.8,325.9,1.1,2.0,343.9,0.21,24.2,24.5
"18/07/04","10:00",2.0,25.6,91.5,995.6,349.4,0.6,2.2,304.1,0.26,24.2,24.5
"18/07/04","11:00",3.0,25.6,91.1,995.8,180.6,0.7,5.1,197.8,0.35,24.1,24.7
"18/07/04","12:00",1.4,26.0,89.0,995.6,186.6,1.8,7.0,205.5,0.54,24.1,24.9
"18/07/04","13:00",0.6,27.3,82.8,995.3,229.7,2.0,8.5,200.6,0.90,24.2,24.9
"18/07/04","14:00",0.4,27.1,83.5,995.3,217.6,2.2,5.5,335.2,0.67,24.1,25.2
"18/07/04","15:00",2.8,26.4,86.4,995.1,73.5,1.0,6.2,193.5,0.57,24.0,25.4
"18/07/04","16:00",0.4,27.2,83.1,995.3,223.0,2.3,8.2,214.1,0.73,24.1,25.4
"18/07/04","17:00",1.4,26.3,85.6,995.6,229.7,2.1,6.8,204.9,0.18,23.7,25.2
"18/07/04","18:00",0.0,27.0,82.0,996.0,249.6,1.7,10.2,222.0,0.15,23.7,25.1
"18/07/04","19:00",0.0,27.0,81.8,996.3,272.4,1.0,8.6,208.1,0.01,23.7,24.8
"18/07/04","20:00",0.0,26.9,82.2,996.7,258.5,1.6,6.4,180.6,0.00,23.6,24.9
"18/07/04","21:00",0.0,26.8,82.6,997.2,243.6,2.2,5.6,192.3,0.00,23.6,24.7
"18/07/04","22:00",0.0,26.6,83.1,997.9,273.0,1.2,4.0,237.5,0.00,23.5,24.6
"18/07/04","23:00",0.0,26.3,84.6,997.9,252.9,1.3,4.8,213.4,0.00,23.5,24.6
"18/07/04","24:00",0.0,25.9,86.4,997.9,236.1,0.6,4.7,239.0,0.00,23.5,24.5
"18/07/05","01:00",18.2,24.9,91.6,997.9,157.4,0.7,3.9,214.3,0.00,23.5,24.5
"18/07/05","02:00",24.0,24.4,93.4,997.9,215.1,2.1,5.6,164.7,0.00,23.3,24.4
"18/07/05","03:00",7.0,24.1,94.0,998.6,174.3,1.7,3.9,193.4,0.00,23.1,24.4
"18/07/05","04:00",11.6,24.2,94.2,998.6,53.8,0.8,4.2,306.4,0.00,23.2,24.3
"18/07/05","05:00",4.4,24.1,94.7,999.1,90.5,0.3,1.7,351.7,0.00,23.2,24.2
"18/07/05","06:00",5.4,24.1,95.0,998.9,79.1,0.2,2.4,65.6,0.00,23.3,24.0
"18/07/05","07:00",2.6,24.0,95.0,999.1,160.8,1.6,5.9,350.2,0.00,23.2,24.0
"18/07/05","08:00",10.2,23.4,95.1,999.6,129.1,1.0,4.3,191.5,0.00,22.6,24.0
"18/07/05","09:00",6.2,23.9,95.2,999.1,130.6,0.8,2.5,105.6,0.00,23.1,24.0
"18/07/05","10:00",11.2,24.0,95.5,998.9,117.6,0.7,3.3,130.2,0.02,23.3,24.0
"18/07/05","11:00",7.8,24.1,95.6,999.3,102.8,0.7,2.1,128.2,0.02,23.4,24.1
"18/07/05","12:00",7.4,24.2,95.8,998.9,108.9,1.0,2.6,111.9,0.00,23.5,24.0
"18/07/05","13:00",8.8,24.2,95.9,998.2,135.0,1.0,3.3,119.0,0.02,23.5,24.1
"18/07/05","14:00",6.0,24.6,95.6,997.9,155.9,2.1,5.0,147.8,0.09,23.9,23.9
"18/07/05","15:00",1.8,25.1,93.3,998.2,250.4,1.2,6.0,185.4,0.20,24.0,23.9
"18/07/05","16:00",0.6,25.4,89.6,998.2,287.1,1.2,4.8,188.2,0.09,23.6,24.1
"18/07/05","17:00",1.2,25.0,90.1,998.2,14.9,1.0,4.2,224.0,0.00,23.3,24.2
"18/07/05","18:00",1.8,24.6,90.9,998.2,138.0,1.0,7.0,196.1,0.00,23.1,24.0
"18/07/05","19:00",5.6,24.2,93.4,998.2,130.3,1.1,3.7,156.5,0.00,23.1,24.2
"18/07/05","20:00",9.4,24.2,92.8,997.9,203.4,2.2,8.1,178.8,0.00,23.0,23.9
"18/07/05","21:00",7.8,24.0,91.9,999.8,274.7,2.3,7.9,199.3,0.00,22.6,23.9
"18/07/05","22:00",14.0,22.5,93.5,1000.8,154.1,0.5,4.8,333.5,0.00,21.4,23.6
"18/07/05","23:00",7.4,22.2,95.0,1001.0,16.0,0.1,1.3,145.1,0.00,21.4,23.4
"18/07/05","24:00",4.2,22.2,95.7,1001.0,167.0,0.5,1.4,128.0,0.00,21.5,23.6
"18/07/06","01:00",2.8,22.0,96.1,1000.8,312.1,0.7,1.4,343.6,0.00,21.4,23.5
"18/07/06","02:00",3.0,22.0,96.5,1001.2,338.0,0.8,1.2,325.5,0.00,21.5,23.3
"18/07/06","03:00",1.6,21.8,96.8,1001.5,301.0,0.6,1.2,353.0,0.00,21.3,23.2
"18/07/06","04:00",2.4,21.8,97.0,1001.9,294.8,0.6,1.4,340.2,0.00,21.3,23.3
"18/07/06","05:00",2.6,21.8,97.1,1002.4,43.1,0.2,1.8,337.6,0.00,21.4,23.2
"18/07/06","06:00",4.0,21.9,97.2,1001.9,314.5,0.8,1.4,338.2,0.00,21.5,23.1
"18/07/06","07:00",7.0,21.9,97.4,1002.4,301.8,0.3,1.2,318.0,0.00,21.5,23.1
"18/07/06","08:00",6.6,22.2,97.4,1002.2,306.5,0.6,1.9,329.6,0.00,21.8,23.1
"18/07/06","09:00",6.0,22.3,97.4,1002.6,260.7,0.5,1.6,321.6,0.00,21.9,23.0
"18/07/06","10:00",35.4,22.6,97.4,1002.9,265.0,0.7,2.5,225.6,0.00,22.2,23.2
"18/07/06","11:00",12.2,22.9,97.4,1002.6,345.0,0.6,1.8,0.8,0.03,22.5,22.8
"18/07/06","12:00",6.0,23.3,97.4,1001.9,144.2,0.2,1.4,333.4,0.08,22.9,23.0
"18/07/06","13:00",20.4,23.2,97.4,1001.5,111.6,0.6,2.1,244.4,0.02,22.8,23.0
"18/07/06","14:00",7.2,23.8,97.4,1001.7,147.5,0.8,3.1,185.3,0.00,23.4,23.1
"18/07/06","15:00",3.0,23.9,97.3,1001.7,108.8,0.7,2.4,140.5,0.03,23.5,23.2
"18/07/06","16:00",5.0,23.9,97.3,1001.2,326.5,0.7,2.1,201.3,0.00,23.5,23.1
"18/07/06","17:00",2.6,24.0,97.3,1001.5,141.8,0.5,1.8,356.5,0.00,23.6,23.2
"18/07/06","18:00",2.0,23.9,97.4,1001.5,234.5,1.1,2.4,219.4,0.00,23.5,23.3
"18/07/06","19:00",0.4,23.8,97.4,1001.5,332.3,0.2,1.9,223.9,0.00,23.4,23.4
"18/07/06","20:00",0.0,23.4,97.5,1001.9,325.9,0.5,0.9,345.3,0.00,23.0,23.4
"18/07/06","21:00",0.4,23.2,97.6,1001.9,334.8,0.5,1.1,233.9,0.00,22.8,23.5
"18/07/06","22:00",0.0,23.2,97.6,1001.9,285.7,0.2,1.1,320.7,0.00,22.8,23.2
"18/07/06","23:00",0.0,23.5,97.6,1001.9,274.8,0.3,1.4,336.3,0.00,23.1,23.2
"18/07/06","24:00",0.0,23.5,97.7,1001.5,327.6,0.1,1.2,326.8,0.00,23.2,23.2
"18/07/07","01:00",0.8,23.5,97.7,1001.5,274.1,0.1,0.8,186.0,0.00,23.2,23.3
"18/07/07","02:00",0.4,23.3,97.8,1001.2,186.8,0.3,1.1,233.5,0.00,23.0,23.1
"18/07/07","03:00",0.6,23.3,97.9,1001.5,338.7,0.5,1.3,238.2,0.00,23.0,23.1
"18/07/07","04:00",0.6,23.2,97.9,1001.7,352.6,0.3,1.3,348.1,0.00,22.9,23.2
"18/07/07","05:00",1.4,23.0,97.9,1002.4,305.3,0.3,1.0,316.0,0.00,22.7,22.9
"18/07/07","06:00",1.6,22.9,97.9,1002.6,327.7,0.3,0.9,337.2,0.00,22.6,23.2
"18/07/07","07:00",1.6,23.2,97.4,1003.6,284.9,0.8,1.9,207.6,0.00,22.8,23.0
"18/07/07","08:00",2.6,23.5,97.9,1003.4,269.7,0.5,1.6,191.8,0.02,23.2,23.0
"18/07/07","09:00",0.8,23.7,97.7,1003.4,242.3,0.2,0.9,235.9,0.18,23.4,23.0
"18/07/07","10:00",1.0,23.7,97.8,1003.6,296.9,0.5,1.7,249.5,0.19,23.4,23.1
"18/07/07","11:00",2.4,23.8,97.6,1003.6,256.2,0.5,1.1,227.5,0.25,23.4,23.5
"18/07/07","12:00",2.2,23.7,97.7,1002.4,239.2,0.6,1.7,213.0,0.07,23.4,23.7
"18/07/07","13:00",0.6,24.1,97.5,1002.9,150.6,1.2,3.5,126.8,0.16,23.7,23.5
"18/07/07","14:00",0.2,24.8,96.8,1002.4,310.2,0.5,2.4,209.0,0.34,24.3,23.6
"18/07/07","15:00",0.6,25.2,95.7,1001.7,356.8,0.6,1.8,336.6,0.67,24.5,23.7
"18/07/07","16:00",1.0,25.3,94.6,1002.2,15.3,0.2,2.2,328.1,0.25,24.4,23.7
"18/07/07","17:00",3.0,24.2,94.6,1003.1,143.1,1.1,2.9,168.7,0.04,23.3,23.8
"18/07/07","18:00",8.0,24.0,95.6,1003.8,152.4,0.7,2.9,148.3,0.00,23.3,23.7
"18/07/07","19:00",1.6,23.6,95.9,1004.1,159.5,1.2,2.8,139.5,0.00,22.9,23.6
"18/07/07","20:00",0.8,23.4,96.3,1004.5,195.9,0.8,2.6,198.1,0.00,22.8,23.3
"18/07/07","21:00",1.4,23.2,96.6,1004.8,348.9,0.2,1.3,354.0,0.00,22.7,23.5
"18/07/07","22:00",0.8,23.0,96.9,1005.5,313.9,0.3,1.6,331.6,0.00,22.5,23.3
"18/07/07","23:00",1.4,22.9,97.1,1005.7,273.9,0.5,1.0,319.5,0.00,22.5,23.3
"18/07/07","24:00",0.0,22.8,97.2,1006.0,282.0,0.3,1.2,345.8,0.00,22.4,23.1
"18/07/08","01:00",0.2,22.7,97.4,1006.0,299.4,0.5,1.3,345.2,0.00,22.3,23.3
"18/07/08","02:00",1.4,22.6,97.6,1006.2,333.1,0.3,1.3,333.1,0.00,22.2,23.3
"18/07/08","03:00",4.2,22.5,97.7,1006.2,338.9,0.6,1.2,355.7,0.00,22.2,23.1
"18/07/08","04:00",0.0,22.3,97.9,1006.0,350.4,0.5,1.1,325.3,0.00,22.0,23.2
"18/07/08","05:00",0.0,22.0,98.0,1006.4,296.0,0.5,1.1,349.4,0.00,21.7,23.1
"18/07/08","06:00",0.0,22.2,97.6,1006.7,335.1,0.6,1.2,340.3,0.00,21.8,23.0
"18/07/08","07:00",0.0,23.9,97.4,1006.4,166.8,0.1,1.1,315.5,0.26,23.5,23.0
"18/07/08","08:00",0.0,26.6,87.0,1006.0,141.9,0.2,1.4,213.7,1.05,24.3,23.3
"18/07/08","09:00",0.0,26.8,84.2,1007.6,182.8,1.1,2.6,224.6,1.38,23.9,23.8
"18/07/08","10:00",0.0,28.1,78.1,1007.4,180.6,0.8,2.0,199.0,1.48,24.0,24.3
"18/07/08","11:00",0.0,28.6,76.4,1007.6,143.8,0.8,2.8,183.2,1.40,24.1,24.6
"18/07/08","12:00",0.0,29.9,70.6,1007.8,177.7,1.3,4.2,133.1,2.38,24.0,25.5
"18/07/08","13:00",0.0,30.6,65.0,1007.6,161.0,1.6,4.0,150.2,2.04,23.3,25.9
"18/07/08","14:00",0.0,30.1,64.2,1006.9,160.0,2.0,4.4,122.5,1.83,22.6,26.4
"18/07/08","15:00",0.0,31.0,63.5,1006.4,239.2,1.0,4.4,115.6,0.72,23.3,26.0
"18/07/08","16:00",0.0,32.4,60.6,1008.1,241.5,1.2,3.4,350.6,2.05,23.8,26.4
"18/07/08","17:00",0.0,32.0,58.0,1007.6,255.2,1.1,4.3,202.6,1.21,22.7,26.7
"18/07/08","18:00",0.0,28.5,69.5,1006.2,319.0,1.6,4.7,334.2,0.33,22.4,26.6
"18/07/08","19:00",0.0,27.5,73.7,1007.1,338.1,0.8,5.0,343.7,0.05,22.4,26.3
"18/07/08","20:00",0.0,25.3,84.4,1008.1,295.4,0.7,1.9,332.4,0.00,22.5,25.7
"18/07/08","21:00",0.0,24.9,86.0,1009.5,294.3,0.5,1.4,332.7,0.00,22.4,25.2
"18/07/08","22:00",0.0,24.7,88.1,1009.7,337.5,0.8,1.3,341.3,0.00,22.6,24.9
"18/07/08","23:00",0.0,24.3,89.1,1010.2,307.9,0.6,1.6,325.7,0.00,22.4,24.7
"18/07/08","24:00",0.0,24.3,89.6,1010.7,329.1,0.7,1.4,333.4,0.00,22.5,24.4
"18/07/09","01:00",0.0,24.1,91.1,1010.2,326.3,0.7,1.3,302.2,0.00,22.6,24.3
"18/07/09","02:00",0.0,23.6,92.2,1010.4,306.9,0.8,1.4,314.7,0.00,22.3,24.3
"18/07/09","03:00",0.0,23.3,93.3,1010.4,302.7,1.0,1.6,323.7,0.00,22.2,24.3
"18/07/09","04:00",0.0,22.7,94.2,1010.4,306.3,1.1,1.9,319.1,0.00,21.8,23.9
"18/07/09","05:00",0.0,21.8,94.6,1011.2,314.3,1.1,1.8,324.6,0.00,20.9,23.7
"18/07/09","06:00",0.0,22.1,95.7,1011.4,308.7,0.8,1.7,321.6,0.00,21.4,23.4
"18/07/09","07:00",0.0,26.2,88.5,1011.6,70.5,0.1,1.6,326.2,0.27,24.2,23.7
"18/07/09","08:00",0.0,28.3,76.6,1011.9,129.7,0.8,2.0,121.6,1.00,23.8,23.8
"18/07/09","09:00",0.0,30.1,72.2,1012.6,135.3,1.0,2.9,121.8,1.96,24.6,24.3
"18/07/09","10:00",0.0,31.0,68.8,1012.8,90.8,1.0,3.3,39.2,2.23,24.6,25.0
"18/07/09","11:00",0.0,31.7,63.6,1013.3,123.6,1.2,3.5,143.4,2.46,24.0,25.8
"18/07/09","12:00",0.0,32.8,60.9,1012.8,59.7,0.7,2.5,72.7,2.35,24.3,26.4
"18/07/09","13:00",0.0,32.5,58.7,1012.3,138.4,1.2,3.5,123.0,1.92,23.4,26.9
"18/07/09","14:00",0.0,33.1,58.4,1011.9,105.3,1.1,4.2,191.6,2.21,23.9,27.3
"18/07/09","15:00",0.0,31.8,63.1,1010.9,90.6,0.8,3.4,160.5,1.09,23.9,27.1
"18/07/09","16:00",9.4,24.0,86.2,1010.2,352.6,1.6,8.2,245.3,0.16,21.6,26.7
"18/07/09","17:00",0.2,25.0,91.4,1010.7,258.4,0.7,3.5,332.5,0.41,23.5,26.0
"18/07/09","18:00",0.0,25.4,89.3,1010.9,273.6,0.7,2.2,240.2,0.45,23.5,26.1
"18/07/09","19:00",0.0,25.2,90.2,1011.4,285.3,0.6,1.6,256.0,0.04,23.5,25.8
"18/07/09","20:00",0.0,24.8,91.5,1012.1,291.8,0.8,2.5,332.7,0.00,23.4,25.6
"18/07/09","21:00",0.0,24.7,92.8,1012.8,315.7,1.3,3.2,336.4,0.00,23.5,25.3
"18/07/09","22:00",0.0,24.2,92.9,1013.0,291.9,0.8,1.6,323.3,0.00,23.0,25.0
"18/07/09","23:00",0.0,23.8,93.6,1013.0,281.3,0.7,2.0,318.7,0.00,22.7,25.0
"18/07/09","24:00",0.0,23.6,94.2,1013.0,309.7,1.0,1.7,321.5,0.00,22.7,24.8
"18/07/10","01:00",0.0,23.4,94.9,1012.6,270.8,0.7,2.2,321.9,0.00,22.6,24.5
"18/07/10","02:00",0.0,23.2,94.9,1012.8,328.5,1.1,1.6,316.0,0.00,22.4,24.4
"18/07/10","03:00",0.0,22.8,95.8,1012.8,292.2,0.8,1.6,323.3,0.00,22.1,24.2
"18/07/10","04:00",0.0,22.5,95.8,1012.3,286.4,0.8,1.7,316.5,0.00,21.8,23.9
"18/07/10","05:00",0.0,22.3,96.5,1012.6,326.3,1.1,1.8,324.5,0.00,21.8,23.7
"18/07/10","06:00",0.0,23.2,96.7,1012.8,298.9,0.7,1.4,322.5,0.03,22.7,23.8
"18/07/10","07:00",0.0,24.7,95.7,1012.8,331.3,0.5,1.4,314.4,0.22,24.0,23.9
"18/07/10","08:00",0.0,27.6,85.5,1011.9,173.6,0.5,1.7,349.7,0.96,25.0,24.1
"18/07/10","09:00",0.0,28.7,76.3,1013.3,353.4,0.8,1.7,355.0,1.74,24.2,24.5
"18/07/10","10:00",0.0,29.3,72.1,1013.3,39.1,1.0,2.7,342.8,1.84,23.8,25.0
"18/07/10","11:00",0.0,31.4,65.9,1013.5,174.6,1.7,3.5,212.5,2.98,24.3,26.0
"18/07/10","12:00",0.0,32.3,60.1,1013.5,166.8,1.5,4.0,220.6,3.45,23.6,27.0
"18/07/10","13:00",0.0,31.8,61.6,1012.8,224.8,1.1,5.8,136.5,2.87,23.5,28.0
"18/07/10","14:00",0.0,32.2,61.0,1012.6,54.2,0.7,3.7,228.6,2.68,23.8,28.0
"18/07/10","15:00",0.0,33.5,51.2,1011.9,316.0,1.2,3.6,314.1,2.89,22.1,28.1
"18/07/10","16:00",0.0,34.1,49.7,1011.2,294.7,1.3,4.1,337.1,2.29,22.1,28.4
"18/07/10","17:00",0.0,34.1,52.8,1010.9,297.6,1.0,3.9,342.1,1.64,23.1,28.5
"18/07/10","18:00",0.0,32.1,57.4,1010.2,270.2,0.6,3.2,327.7,0.20,22.7,28.5
"18/07/10","19:00",0.0,29.8,61.2,1009.0,336.4,1.3,2.9,326.2,0.00,21.6,27.8
"18/07/10","20:00",0.0,27.8,70.1,1010.7,331.9,0.5,3.7,339.2,0.00,21.9,27.1
"18/07/10","21:00",0.0,25.6,81.5,1010.7,311.8,1.2,2.7,348.8,0.00,22.2,26.5
"18/07/10","22:00",0.0,24.5,84.7,1011.6,305.3,0.6,2.4,330.1,0.00,21.8,26.2
"18/07/10","23:00",0.0,23.9,86.7,1011.6,285.6,0.7,2.0,324.0,0.00,21.6,25.5
"18/07/10","24:00",0.0,23.7,87.4,1011.6,304.5,1.0,3.1,321.8,0.00,21.5,25.6
"18/07/11","01:00",0.0,22.9,89.8,1011.2,318.1,1.3,2.0,315.4,0.00,21.2,25.2
"18/07/11","02:00",0.0,22.4,91.0,1011.2,295.3,1.1,1.8,318.3,0.00,20.9,24.8
"18/07/11","03:00",0.0,22.0,92.2,1010.9,293.9,1.2,2.7,334.0,0.00,20.7,24.6
"18/07/11","04:00",0.0,21.6,93.6,1010.9,315.1,1.2,1.9,319.2,0.00,20.6,24.3
"18/07/11","05:00",0.0,21.4,93.5,1010.9,297.3,1.2,1.8,319.8,0.00,20.3,24.0
"18/07/11","06:00",0.0,21.9,94.2,1011.2,316.6,0.8,1.7,323.0,0.01,21.0,23.7
"18/07/11","07:00",0.0,25.7,84.1,1011.6,6.8,0.1,2.6,326.4,0.33,22.9,24.0
"18/07/11","08:00",0.0,27.7,75.9,1010.9,57.4,0.2,1.7,205.7,0.94,23.1,24.2
"18/07/11","09:00",0.0,29.2,70.5,1011.4,77.3,0.5,2.2,17.9,1.84,23.3,24.9
"18/07/11","10:00",0.0,30.8,64.3,1012.6,131.4,0.8,1.8,15.9,2.45,23.3,25.4
"18/07/11","11:00",0.0,31.0,66.6,1012.3,207.9,1.2,3.3,191.1,2.74,24.1,26.2
"18/07/11","12:00",0.0,33.1,59.6,1011.9,130.3,1.1,3.7,111.9,3.30,24.2,27.3
"18/07/11","13:00",0.0,32.7,60.2,1011.2,248.7,0.8,3.4,130.3,2.06,24.0,27.9
"18/07/11","14:00",0.0,32.9,63.5,1009.7,286.9,0.5,2.9,225.5,1.30,25.1,28.0
"18/07/11","15:00",0.0,33.0,57.6,1009.5,268.5,0.8,2.7,221.8,1.86,23.6,28.2
"18/07/11","16:00",0.0,31.9,64.9,1008.6,355.7,0.8,3.1,348.4,1.12,24.5,28.2
"18/07/11","17:00",0.0,30.7,70.0,1006.9,343.5,1.3,2.7,326.7,0.42,24.6,27.9
"18/07/11","18:00",0.0,30.0,73.0,1006.2,343.1,1.1,3.9,344.0,0.23,24.7,27.7
"18/07/11","19:00",0.0,29.6,68.8,1006.7,347.1,1.5,3.1,351.8,0.11,23.3,27.2
"18/07/11","20:00",0.0,28.5,69.1,1007.8,338.3,1.7,4.3,334.5,0.00,22.3,26.8
"18/07/11","21:00",0.0,28.2,69.4,1007.8,353.2,1.1,4.8,333.7,0.00,22.1,26.6
"18/07/11","22:00",0.0,27.4,72.1,1008.6,341.3,1.6,2.8,351.3,0.00,22.0,26.4
"18/07/11","23:00",0.0,26.2,78.1,1008.6,308.6,0.8,3.2,343.9,0.00,22.1,25.9
"18/07/11","24:00",0.0,25.7,81.9,1008.1,316.0,1.0,2.1,338.0,0.00,22.4,25.7
"18/07/12","01:00",0.0,25.5,80.7,1007.8,291.3,0.5,2.5,340.8,0.00,22.0,25.7
"18/07/12","02:00",0.0,26.0,76.8,1007.6,284.7,0.8,3.5,330.1,0.00,21.7,25.3
"18/07/12","03:00",0.0,25.5,81.1,1007.8,329.7,2.0,4.5,346.3,0.00,22.1,25.3
"18/07/12","04:00",0.0,25.3,82.5,1007.1,331.0,2.0,4.1,338.7,0.00,22.1,25.0
"18/07/12","05:00",0.0,24.9,84.2,1007.1,332.1,1.5,3.3,331.2,0.00,22.1,25.2
"18/07/12","06:00",0.0,25.1,84.6,1007.4,332.9,1.7,3.7,337.0,0.01,22.4,24.7
"18/07/12","07:00",0.0,25.6,84.3,1007.4,327.2,1.5,3.2,340.8,0.11,22.8,24.7
"18/07/12","08:00",0.0,28.1,77.6,1006.4,35.8,0.7,2.4,336.2,0.78,23.9,25.0
"18/07/12","09:00",0.0,29.0,70.8,1007.6,54.2,0.7,1.8,8.0,1.22,23.2,25.4
"18/07/12","10:00",0.0,29.7,70.8,1008.1,349.3,0.6,1.6,343.0,1.23,23.9,26.0
"18/07/12","11:00",0.0,30.3,71.5,1007.8,209.0,0.8,2.5,345.2,1.30,24.6,26.3
"18/07/12","12:00",0.0,31.2,67.0,1008.6,245.3,0.7,2.7,346.4,2.22,24.4,27.0
"18/07/12","13:00",0.0,31.7,64.4,1007.6,233.6,1.2,3.3,345.7,1.91,24.2,27.2
"18/07/12","14:00",0.0,31.0,64.3,1007.1,274.6,0.7,3.4,223.8,1.93,23.5,27.7
"18/07/12","15:00",0.0,29.9,69.8,1005.5,266.6,1.1,3.5,335.4,0.84,23.8,27.6
"18/07/12","16:00",0.0,30.4,69.9,1005.5,291.6,0.6,2.8,349.3,0.87,24.3,27.4
"18/07/12","17:00",0.0,30.4,67.0,1005.0,292.6,0.6,3.5,346.6,0.65,23.6,27.5
"18/07/12","18:00",0.0,29.1,72.8,1004.5,347.3,1.1,4.2,338.8,0.08,23.8,27.3
"18/07/12","19:00",0.0,27.7,77.2,1005.5,338.1,0.8,2.1,345.3,0.00,23.4,26.9
"18/07/12","20:00",0.0,26.5,82.8,1005.7,332.1,1.0,1.8,333.2,0.00,23.4,26.7
"18/07/12","21:00",0.0,25.8,84.9,1006.4,302.0,1.1,2.1,331.3,0.00,23.1,26.1
"18/07/12","22:00",0.0,25.1,85.6,1006.4,279.1,0.7,1.8,322.9,0.00,22.6,25.7
"18/07/12","23:00",0.0,24.9,85.3,1006.4,302.1,0.7,1.4,333.2,0.00,22.3,25.7
"18/07/12","24:00",0.0,24.8,84.1,1006.4,321.0,1.0,2.9,345.9,0.00,22.0,25.4
"18/07/13","01:00",0.0,24.2,86.4,1006.2,307.3,0.7,1.3,322.2,0.00,21.8,25.3
"18/07/13","02:00",0.0,24.9,83.3,1006.2,332.5,1.5,2.8,340.0,0.00,21.9,25.0
"18/07/13","03:00",0.0,24.6,83.1,1006.2,331.3,1.5,2.9,340.1,0.00,21.6,24.8
"18/07/13","04:00",0.0,23.9,86.0,1006.0,330.8,0.8,2.6,331.0,0.00,21.5,24.8
"18/07/13","05:00",0.0,23.4,89.6,1006.0,324.2,0.8,1.9,324.1,0.00,21.6,24.8
"18/07/13","06:00",0.0,24.2,89.1,1006.2,321.8,0.8,2.2,313.9,0.01,22.3,24.8
"18/07/13","07:00",0.0,25.5,85.8,1006.2,348.3,1.1,3.2,331.6,0.22,23.0,24.6
"18/07/13","08:00",0.0,28.2,76.2,1005.2,109.7,0.6,2.2,345.4,0.88,23.6,24.8
"18/07/13","09:00",0.0,29.0,73.1,1006.7,30.5,0.8,1.9,117.6,1.40,23.7,25.3
"18/07/13","10:00",0.0,30.7,70.6,1007.6,318.2,0.7,2.7,201.1,2.07,24.8,26.1
"18/07/13","11:00",0.0,32.1,68.0,1007.4,258.4,1.1,3.1,325.5,2.63,25.5,26.7
"18/07/13","12:00",0.0,32.4,63.0,1006.9,288.9,0.7,2.9,230.5,2.50,24.5,27.6
"18/07/13","13:00",0.0,32.5,61.6,1006.2,224.8,1.0,3.1,320.6,1.95,24.2,28.0
"18/07/13","14:00",0.0,33.4,58.9,1006.0,297.6,1.0,3.3,314.2,2.16,24.3,28.0
"18/07/13","15:00",0.0,33.0,55.6,1005.2,13.3,1.3,5.2,228.1,1.55,23.0,28.4
"18/07/13","16:00",0.0,31.4,63.4,1003.8,4.1,1.0,4.1,15.5,1.03,23.7,28.2
"18/07/13","17:00",0.0,30.9,65.1,1003.4,346.2,1.3,3.9,347.6,0.60,23.6,28.0
"18/07/13","18:00",0.0,31.3,61.4,1003.8,297.8,0.5,2.1,358.8,0.30,23.0,27.9
"18/07/13","19:00",0.0,29.4,72.6,1003.4,357.0,0.7,1.7,349.0,0.09,24.0,27.6
"18/07/13","20:00",0.0,27.3,78.4,1003.6,343.2,1.1,2.2,340.2,0.00,23.3,27.2
"18/07/13","21:00",0.0,26.3,82.4,1004.1,344.3,0.7,1.6,356.9,0.00,23.1,26.7
"18/07/13","22:00",0.0,25.5,85.1,1005.0,294.8,0.7,1.8,325.2,0.00,22.9,26.3
"18/07/13","23:00",0.0,25.4,85.0,1005.0,289.1,1.0,2.0,232.1,0.00,22.7,26.0
"18/07/13","24:00",0.0,25.6,83.7,1004.8,337.0,1.3,4.8,328.3,0.00,22.7,25.9
"18/07/14","01:00",0.0,25.0,86.0,1004.3,337.4,1.2,4.2,329.1,0.00,22.5,25.5
"18/07/14","02:00",0.0,24.3,88.5,1004.5,333.7,1.1,2.9,334.7,0.00,22.3,25.2
"18/07/14","03:00",0.0,24.3,89.9,1004.5,341.5,1.8,3.7,349.2,0.00,22.6,25.2